Tracking 27382 objects as of 5-Jun-2023
HD Live streaming from Space Station
objects crossing your sky now

CZ-2C DEB

Track CZ-2C DEB now!
10-day predictions


NORAD ID: 40263
Int'l Code: 2014-059C
Perigee: 638.5 km
Apogee: 779.8 km
Inclination: 98.2 °
Period: 98.8 minutes
Semi major axis: 7080 km
RCS: Unknown
Launch date: September 28, 2014
Source: People's Republic of China (PRC)
Launch site: Jiuquan Satellite Launch Center, China (JSC)

Note: This is SATELLITE DEBRIS
Your satellite tracking list
Your tracking list is empty




NASA's NSSDC Master Catalog

Two Line Element Set (TLE):
1 40263U 14059C   23155.48923059  .00005903  00000-0  12289-2 0  9991
2 40263  98.2190 242.4040 0099780 209.0088 150.5544 14.57280273459889
Source of the keplerian elements: AFSPC